Starlink 1284

operational
NORAD ID: 45390 Int'l Des: 2020-019 Owner: SPXS Country: US Constellation: starlink
LEOCIRCULAR

关于 Starlink 1284

正在加载描述...

实时位置

正在加载3D地球...

即将过境

高度历史

Altitude vs Time

uPlot chart will show altitude changes over time

两行轨道根数

1 45390U 20019AG 26062.49298977 .00095146 00000-0 16259-2 0 9994
2 45390 53.0500 160.7773 0002398 351.6169 8.4799 15.50536313329261
Epoch: Mar 3, 2026 • Age: 40 hours

当前状态

高度 420.2 km
速度 7.66 km/s
星下点 45.53°N, 119.63°W
发射日期 Mar 18, 2020
运行时间 5.9 years
类型 internet

技术详情

分类 Payload
质量 260.00 kg
干质量 248.00 kg
总质量 260.00 kg
长度 0.20 m
直径 2.80 m
跨度 9.00 m
形状 Box + pan
制造商 SPXS
平台类型 Starlink
阶段状态 In Orbit
所有者/国家 SPXS/US

大型星座

Loading constellations...